| time (UTC) | temp C | wind direction | speed KPH | gust KPH | rain 1hr cm | rain 24hr cm | rain mn cm | humidity % | barometer mb |
| 20260507064458 | 6 | 140 | 0.0 | 0.0 | 0.00 | 0.00 | 0.00 | 97 | 1006.5 |
| 20260507062958 | 6 | 59 | 0.0 | 0.0 | 0.00 | 0.00 | 0.00 | 97 | 1006.3 |
| 20260507061459 | 6 | 59 | 0.0 | 0.0 | 0.00 | 0.00 | 0.00 | 97 | 1006.8 |
| 20260507055958 | 6 | 59 | 0.0 | 0.0 | 0.00 | 0.00 | 0.00 | 97 | 1006.7 |
| 20260507054456 | 6 | 355 | 0.0 | 0.0 | 0.00 | 0.00 | 0.00 | 97 | 1007.0 |
| 20260507052955 | 6 | 337 | 0.0 | 3.2 | 0.00 | 0.00 | 0.00 | 97 | 1007.4 |
| 20260507051456 | 6 | 337 | 0.0 | 3.2 | 0.00 | 0.00 | 0.00 | 97 | 1007.3 |
| 20260507051451 | 6 | 92 | 0.0 | 1.6 | 0.00 | 0.00 | 0.00 | 97 | 1007.1 |
| 20260507044447 | 6 | 26 | 0.0 | 0.0 | 0.00 | 0.00 | 0.00 | 97 | 1006.7 |
| 20260507042945 | 6 | 48 | 0.0 | 3.2 | 0.00 | 0.00 | 0.00 | 97 | 1006.7 |
| 20260507041445 | 6 | 335 | 0.0 | 3.2 | 0.00 | 0.00 | 0.00 | 97 | 1006.8 |
| 20260507035944 | 6 | 224 | 0.0 | 0.0 | 0.00 | 0.00 | 1.65 | 97 | 1006.9 |
| 20260507034032 | 7 | 60 | 1.6 | 6.4 | 0.08 | 1.65 | 1.65 | 97 | 1006.9 |
| 20260507032532 | 7 | 65 | 0.0 | 6.4 | 0.10 | 1.65 | 1.65 | 97 | 1006.8 |
| 20260507031032 | 7 | 68 | 0.0 | 6.4 | 0.13 | 1.65 | 1.65 | 97 | 1006.9 |
| 20260507025527 | 7 | 71 | 1.6 | 6.4 | 0.18 | 1.65 | 1.65 | 97 | 1006.9 |
| 20260507024028 | 7 | 355 | 1.6 | 4.8 | 0.13 | 1.57 | 1.57 | 97 | 1006.9 |
| 20260507022526 | 7 | 33 | 1.6 | 8.0 | 0.13 | 1.55 | 1.57 | 97 | 1007.0 |
| 20260507021026 | 7 | 89 | 1.6 | 6.4 | 0.15 | 1.52 | 1.52 | 97 | 1007.0 |
| 20260507015526 | 8 | 44 | 0.0 | 8.0 | 0.10 | 1.47 | 1.47 | 97 | 1006.8 |
| 20260507014027 | 8 | 355 | 1.6 | 8.0 | 0.10 | 1.45 | 1.45 | 97 | 1006.9 |
| 20260507012523 | 8 | 63 | 1.6 | 8.0 | 0.08 | 1.42 | 1.42 | 97 | 1006.7 |
| 20260507011754 | 8 | 346 | 3.2 | 9.7 | 0.03 | 1.37 | 1.37 | 97 | 1006.2 |
| 20260507005525 | 10 | 267 | 1.6 | 9.7 | 0.03 | 1.37 | 1.37 | 97 | 1006.1 |
| 20260507004024 | 10 | 94 | 1.6 | 9.7 | 0.20 | 1.35 | 1.35 | 97 | 1005.6 |
| 20260507002523 | 11 | 45 | 1.6 | 8.0 | 0.33 | 1.35 | 1.35 | 97 | 1005.3 |
| 20260507001025 | 11 | 48 | 1.6 | 8.0 | 0.36 | 1.35 | 1.35 | 97 | 1004.8 |
| 20260506235525 | 11 | 29 | 1.6 | 14.5 | 0.38 | 1.35 | 1.35 | 97 | 1004.7 |
| 20260506234025 | 12 | 13 | 4.8 | 14.5 | 0.18 | 1.14 | 1.19 | 97 | 1004.5 |
| 20260506232523 | 13 | 30 | 3.2 | 14.5 | 0.05 | 1.02 | 1.02 | 98 | 1003.9 |
| 20260506231021 | 13 | 238 | 3.2 | 14.5 | 0.03 | 0.99 | 0.99 | 98 | 1003.6 |
| 20260506230252 | 14 | 255 | 4.8 | 14.5 | 0.00 | 0.97 | 0.97 | 98 | 1003.4 |
| 20260506224021 | 14 | 247 | 4.8 | 14.5 | 0.00 | 0.97 | 0.97 | 98 | 1003.5 |
| 20260506222523 | 14 | 236 | 6.4 | 17.7 | 0.00 | 0.97 | 0.97 | 98 | 1003.7 |
| 20260506221023 | 14 | 223 | 4.8 | 12.9 | 0.00 | 0.97 | 0.97 | 98 | 1003.6 |
| 20260506215522 | 14 | 216 | 4.8 | 16.1 | 0.03 | 0.97 | 0.97 | 98 | 1003.5 |
| 20260506214753 | 14 | 221 | 4.8 | 16.1 | 0.03 | 0.97 | 0.97 | 98 | 1003.6 |
| 20260506212523 | 14 | 240 | 4.8 | 19.3 | 0.05 | 0.97 | 0.97 | 98 | 1003.8 |
| 20260506211750 | 14 | 264 | 6.4 | 19.3 | 0.05 | 0.97 | 0.97 | 97 | 1003.6 |
| 20260506205518 | 14 | 234 | 6.4 | 20.9 | 0.03 | 0.94 | 0.94 | 97 | 1003.6 |
| 20260506204018 | 14 | 252 | 6.4 | 20.9 | 0.05 | 0.94 | 0.94 | 98 | 1003.6 |
| 20260506202518 | 14 | 239 | 6.4 | 17.7 | 0.03 | 0.91 | 0.91 | 97 | 1003.8 |
| 20260506201018 | 15 | 336 | 4.8 | 16.1 | 0.05 | 0.91 | 0.91 | 97 | 1003.8 |
| 20260506195518 | 15 | 238 | 6.4 | 16.1 | 0.10 | 0.91 | 0.91 | 97 | 1003.9 |
| 20260506194017 | 15 | 253 | 3.2 | 16.1 | 0.18 | 0.89 | 0.89 | 97 | 1004.0 |
| 20260506193250 | 15 | 13 | 1.6 | 14.5 | 0.28 | 0.89 | 0.89 | 97 | 1004.1 |
| 20260506191749 | 15 | 200 | 3.2 | 16.1 | 0.38 | 0.86 | 0.86 | 97 | 1004.1 |
| 20260506190252 | 15 | 197 | 1.6 | 11.3 | 0.38 | 0.81 | 0.84 | 97 | 1004.4 |
| 20260506184012 | 14 | 234 | 3.2 | 12.9 | 0.36 | 0.71 | 0.71 | 97 | 1004.7 |
| 20260506182512 | 14 | 247 | 3.2 | 11.3 | 0.36 | 0.61 | 0.61 | 97 | 1004.8 |
| 20260506181011 | 15 | 245 | 3.2 | 11.3 | 0.30 | 0.48 | 0.48 | 96 | 1005.4 |
| 20260506175511 | 14 | 232 | 3.2 | 8.0 | 0.30 | 0.43 | 0.43 | 96 | 1005.5 |
| 20260506174012 | 14 | 217 | 1.6 | 11.3 | 0.30 | 0.36 | 0.36 | 96 | 1005.9 |
| 20260506173242 | 14 | 242 | 3.2 | 9.7 | 0.23 | 0.25 | 0.28 | 95 | 1006.2 |
| 20260506171008 | 15 | 231 | 3.2 | 6.4 | 0.18 | 0.18 | 0.18 | 95 | 1006.2 |
| 20260506165505 | 15 | 232 | 3.2 | 12.9 | 0.13 | 0.13 | 0.13 | 94 | 1006.1 |
| 20260506164005 | 15 | 226 | 3.2 | 6.4 | 0.05 | 0.05 | 0.05 | 93 | 1006.1 |
| 20260506162504 | 15 | 246 | 3.2 | 6.4 | 0.03 | 0.03 | 0.03 | 91 | 1006.3 |
| 20260506161006 | 16 | 252 | 3.2 | 14.5 | 0.00 | 0.00 | 0.00 | 89 | 1006.2 |
| 20260506160238 | 16 | 229 | 3.2 | 12.9 | 0.00 | 0.00 | 0.00 | 88 | 1006.3 |
| 20260506154000 | 15 | 236 | 3.2 | 12.9 | 0.00 | 0.00 | 0.00 | 89 | 1006.7 |
| 20260506153232 | 15 | 239 | 1.6 | 9.7 | 0.00 | 0.00 | 0.00 | 88 | 1006.8 |
| 20260506150959 | 15 | 202 | 1.6 | 9.7 | 0.00 | 0.00 | 0.00 | 87 | 1007.3 |
| 20260506150231 | 15 | 238 | 3.2 | 11.3 | 0.00 | 0.00 | 0.00 | 85 | 1007.5 |
| 20260506144730 | 16 | 146 | 4.8 | 12.9 | 0.00 | 0.00 | 0.00 | 84 | 1007.3 |
| 20260506142502 | 16 | 234 | 4.8 | 11.3 | 0.00 | 0.00 | 0.00 | 84 | 1007.1 |
| 20260506140959 | 16 | 232 | 4.8 | 14.5 | 0.00 | 0.00 | 0.00 | 85 | 1007.2 |
| 20260506135458 | 15 | 102 | 4.8 | 16.1 | 0.00 | 0.00 | 0.00 | 86 | 1007.1 |
| 20260506133959 | 15 | 242 | 4.8 | 11.3 | 0.00 | 0.00 | 0.00 | 88 | 1007.2 |
| 20260506133231 | 14 | 202 | 3.2 | 11.3 | 0.00 | 0.00 | 0.00 | 89 | 1007.1 |
| 20260506131729 | 13 | 213 | 3.2 | 9.7 | 0.00 | 0.00 | 0.00 | 89 | 1007.6 |
| 20260506125501 | 13 | 236 | 3.2 | 11.3 | 0.00 | 0.00 | 0.00 | 89 | 1007.8 |
| 20260506123958 | 13 | 230 | 4.8 | 12.9 | 0.00 | 0.00 | 0.00 | 90 | 1007.9 |
| 20260506122458 | 13 | 236 | 4.8 | 12.9 | 0.00 | 0.00 | 0.00 | 90 | 1007.5 |
| 20260506120957 | 13 | 250 | 4.8 | 17.7 | 0.00 | 0.00 | 0.00 | 90 | 1007.1 |
| 20260506115458 | 13 | 225 | 4.8 | 12.9 | 0.00 | 0.00 | 0.00 | 90 | 1007.4 |
| 20260506113955 | 13 | 234 | 6.4 | 11.3 | 0.00 | 0.00 | 0.00 | 91 | 1007.7 |
| 20260506112455 | 13 | 246 | 4.8 | 9.7 | 0.00 | 0.00 | 0.00 | 91 | 1007.5 |
| 20260506111726 | 12 | 209 | 4.8 | 14.5 | 0.00 | 0.00 | 0.00 | 93 | 1007.5 |
| 20260506105454 | 12 | 212 | 3.2 | 6.4 | 0.00 | 0.00 | 0.00 | 95 | 1007.5 |
| 20260506103952 | 11 | 196 | 1.6 | 6.4 | 0.00 | 0.00 | 0.00 | 95 | 1007.5 |
| 20260506103221 | 11 | 209 | 1.6 | 4.8 | 0.00 | 0.00 | 0.00 | 95 | 1007.5 |
| 20260506101721 | 10 | 270 | 0.0 | 3.2 | 0.00 | 0.00 | 0.00 | 94 | 1007.5 |
| 20260506095450 | 10 | 211 | 0.0 | 3.2 | 0.00 | 0.00 | 0.00 | 94 | 1007.6 |
| 20260506093950 | 10 | 203 | 0.0 | 3.2 | 0.00 | 0.00 | 0.00 | 93 | 1007.5 |
| 20260506093223 | 10 | 263 | 0.0 | 3.2 | 0.00 | 0.00 | 0.00 | 92 | 1007.5 |
| 20260506090951 | 11 | 211 | 0.0 | 3.2 | 0.00 | 0.00 | 0.00 | 92 | 1007.5 |
| 20260506085452 | 11 | 163 | 0.0 | 0.0 | 0.00 | 0.00 | 0.00 | 92 | 1007.4 |
| 20260506083950 | 11 | 256 | 0.0 | 6.4 | 0.00 | 0.00 | 0.00 | 91 | 1007.7 |
| 20260506082450 | 11 | 62 | 1.6 | 4.8 | 0.00 | 0.00 | 0.00 | 91 | 1007.8 |
| 20260506080951 | 11 | 62 | 0.0 | 1.6 | 0.00 | 0.00 | 0.00 | 90 | 1008.0 |
| 20260506072451 | 12 | 236 | 0.0 | 0.0 | 0.00 | 0.00 | 0.00 | 87 | 1008.1 |
| 20260506070950 | 12 | 271 | 0.0 | 3.2 | 0.00 | 0.00 | 0.00 | 86 | 1008.0 |